Idaho Falls, ID

5:08 AM MST on November 25, 2017 (GMT -0700)
Fanning

Weather History for KIDA - January, 2014

Change the Weather History Date:

Monday, January 13, 2014

  Actual Average Record
Temperature  
Mean Temperature 35 °F 20 °F  
Max Temperature 39 °F 28 °F 48 °F (1990)
Min Temperature 31 °F 12 °F -21 °F (1963)
Degree Days  
Heating Degree Days 30 45  
Month to date heating degree days 527 585  
Since 1 July heating degree days 3792 3858  
Cooling Degree Days 0 0  
Month to date cooling degree days 0 0  
Year to date cooling degree days 0 0  
Moisture  
Dew Point 30 °F    
Average Humidity 83    
Maximum Humidity 89    
Minimum Humidity 76    
Precipitation  
Precipitation 0.00 in 0.02 in 0.17 in (1970)
Month to date precipitation 0.19 0.33  
Year to date precipitation 0.19 0.33  
Sea Level Pressure  
Sea Level Pressure 30.29 in    
Wind  
Wind Speed 23 mph (SW)    
Max Wind Speed 35 mph    
Max Gust Speed 43 mph    
Visibility 10 miles    
Events      
T = Trace of Precipitation, MM = Missing Value Source: NWS Daily Summary

Daily Weather History Graph

Daily Weather History Graph

Search for Another Location

Airport or City:

Trip Planner

Search our weather history database for the weather conditions in past years. The results will help you decide how hot, cold, wet, or windy it might be!

Date:

Astronomy

Jan. 13, 2014 Rise Set
Actual Time 7:59 AM MST 5:15 PM MST
Civil Twilight 7:27 AM MST 5:47 PM MST
Nautical Twilight 6:51 AM MST 6:22 PM MST
Astronomical Twilight 6:17 AM MST 6:57 PM MST
Moon 3:34 PM MST (1/13) 5:50 AM MST (1/13)
Length of Visible Light 10h 19m
Length of Day
9h 16m
Waxing Gibbous, 95% of the Moon is Illuminated
Jan 13
Waxing Gibbous
Jan 15
Full
Jan 23
Last Quarter
Jan 30
New
Feb 6
First Quarter

Hourly Weather History & Observations

Time (MST) Temp. Windchill Dew Point Humidity Pressure Visibility Wind Dir Wind Speed Gust Speed Precip Events Conditions
12:53 AM 32.0 °F 19.2 °F 28.0 °F 85% 30.22 in 10.0 mi SSW 23.0 mph - N/A   Overcast
1:53 AM 32.0 °F 18.1 °F 28.0 °F 85% 30.22 in 10.0 mi WSW 27.6 mph 35.7 mph N/A   Overcast
2:53 AM 32.0 °F 18.6 °F 28.0 °F 85% 30.23 in 10.0 mi SW 25.3 mph 35.7 mph N/A   Overcast
3:53 AM 32.0 °F 20.1 °F 28.9 °F 88% 30.25 in 10.0 mi SW 19.6 mph 28.8 mph N/A   Overcast
4:53 AM 33.1 °F 21.2 °F 28.9 °F 85% 30.27 in 10.0 mi SW 20.7 mph - N/A   Overcast
5:53 AM 33.1 °F 20.6 °F 28.9 °F 85% 30.28 in 10.0 mi SW 23.0 mph - N/A   Overcast
6:53 AM 33.1 °F 19.6 °F 28.9 °F 85% 30.27 in 10.0 mi SW 27.6 mph 34.5 mph N/A   Overcast
7:02 AM 33.1 °F 19.8 °F 28.9 °F 85% 30.21 in 10.0 mi SW 26.5 mph 33.4 mph N/A   Overcast
7:53 AM 33.1 °F 20.3 °F 28.9 °F 85% 30.29 in 10.0 mi SSW 24.2 mph 32.2 mph N/A   Overcast
8:43 AM 33.1 °F 19.8 °F 28.9 °F 85% 30.22 in 10.0 mi SSW 26.5 mph 34.5 mph N/A   Overcast
8:53 AM 33.1 °F 19.6 °F 28.9 °F 85% 30.30 in 10.0 mi SSW 27.6 mph 36.8 mph N/A   Overcast
9:53 AM 33.1 °F 18.9 °F 30.0 °F 89% 30.28 in 10.0 mi SW 31.1 mph 39.1 mph N/A   Overcast
10:26 AM 34.0 °F 21.5 °F 30.0 °F 85% 30.23 in 10.0 mi SSW 24.2 mph 32.2 mph N/A   Mostly Cloudy
10:53 AM 35.1 °F 23.0 °F 30.0 °F 82% 30.31 in 10.0 mi South 24.2 mph - N/A   Mostly Cloudy
11:53 AM 36.0 °F 23.0 °F 30.9 °F 82% 30.27 in 10.0 mi SW 29.9 mph 41.4 mph N/A   Mostly Cloudy
12:53 PM 37.0 °F 25.4 °F 30.9 °F 79% 30.26 in 10.0 mi SSW 25.3 mph 35.7 mph N/A   Mostly Cloudy
1:53 PM 37.0 °F 24.5 °F 32.0 °F 82% 30.25 in 10.0 mi SW 29.9 mph 38.0 mph N/A   Mostly Cloudy
2:49 PM 39.2 °F 27.6 °F 32.0 °F 75% 30.20 in 10.0 mi SW 28.8 mph - N/A   Mostly Cloudy
2:53 PM 39.0 °F 27.4 °F 32.0 °F 76% 30.25 in 10.0 mi SW 28.8 mph 33.4 mph N/A   Mostly Cloudy
3:53 PM 37.9 °F 27.1 °F 32.0 °F 79% 30.27 in 10.0 mi SSW 23.0 mph - N/A   Mostly Cloudy
4:53 PM 37.9 °F 27.3 °F 30.9 °F 76% 30.29 in 10.0 mi SSW 21.9 mph 31.1 mph N/A   Mostly Cloudy
5:53 PM 36.0 °F 24.7 °F 30.0 °F 79% 30.32 in 10.0 mi SSW 21.9 mph - N/A   Scattered Clouds
6:53 PM 35.1 °F 24.5 °F 30.0 °F 82% 30.33 in 10.0 mi SSW 18.4 mph - N/A   Clear
7:53 PM 34.0 °F 22.7 °F 28.9 °F 82% 30.36 in 10.0 mi SW 19.6 mph - N/A   Clear
8:53 PM 34.0 °F 23.4 °F 28.9 °F 82% 30.38 in 10.0 mi SSW 17.3 mph - N/A   Clear
9:53 PM 33.1 °F 23.0 °F 28.0 °F 82% 30.42 in 10.0 mi SSW 15.0 mph - N/A   Partly Cloudy
10:53 PM 32.0 °F 21.6 °F 28.0 °F 85% 30.43 in 10.0 mi SSW 15.0 mph - N/A   Clear
11:53 PM 32.0 °F 20.8 °F 28.0 °F 85% 30.45 in 10.0 mi SW 17.3 mph - N/A   Clear